Home > Weather > Dundee > Past weeks

Flag for United Kingdom Past Weather in Dundee, Scotland, United Kingdom — Yesterday and Last 2 Weeks

Now
50 °F

Clear.


Feels Like: 50 °F
Forecast: 50 / 68 °F
Wind: 1 mph from North

Location: Leuchars

Current Time: Jul 29, 2016 at 5:10:40 AM

Latest Report: Jul 29, 2016 at 3:50 AM


Visibility: 10 mi

Pressure: 29.77 "Hg

Humidity: 100%

Dew Point: 50 °F

Location of DundeeLocation

Past Weather in Dundee — Graph

°F

Dundee Temperature Yesterday

Maximum temperature yesterday: 64 °F (at 5:50 PM)
Minimum temperature yesterday: 48 °F (at 3:50 AM)
Average temperature yesterday: 57 °F

High & Low Weather Summary for the Past Weeks

 TemperatureHumidityPressure
High75 °F (Jul 18, 5:50 PM)100% (Jul 15, 12:50 AM)30.21 "Hg (Jul 15, 12:50 AM)
Low48 °F (Jul 28, 3:50 AM)53% (Jul 21, 4:50 PM)29.68 "Hg (Jul 20, 12:50 PM)
Average60 °F83%29.96 "Hg
* Reported Jul 14 3:50 AM — Jul 29 3:50 AM, Dundee, Weather by CustomWeather, © 2016

Note: Actual official high and low records may vary slightly from our data, if they occured in-between our weather recording intervals... More about our weather records

Advertising

Dundee Weather History for the Previous 24 Hours

Scroll right to see more
 ConditionsComfort  
Time TempWeatherWind HumidityBarometerVisibility
3:50 AM
Fri, Jul 29
50 °FClear.1 mph100%29.77 "Hg10 mi
2:50 AM50 °FClear.5 mph100%29.77 "Hg10 mi
1:50 AM52 °FClear.1 mph94%29.77 "Hg10 mi
12:50 AM52 °FClear.3 mph94%29.77 "Hg10 mi
11:50 PM
Thu, Jul 28
54 °FClear.1 mph94%29.77 "Hg10 mi
10:50 PM54 °FClear.3 mph94%29.77 "Hg10 mi
9:50 PM59 °FSunny.2 mph82%29.77 "Hg10 mi
8:50 PM59 °FSunny.5 mph82%29.77 "Hg10 mi
7:50 PM63 °FSunny.6 mph73%29.77 "Hg10 mi
6:50 PM63 °FScattered clouds.7 mph77%29.77 "HgN/A
5:50 PM64 °FSunny.8 mph68%29.77 "Hg10 mi
4:50 PM63 °FPartly sunny.9 mph73%29.77 "HgN/A
3:50 PM63 °FPartly sunny.12 mph68%29.80 "HgN/A
2:50 PM63 °FBroken clouds.10 mph73%29.80 "HgN/A
1:50 PM63 °FScattered clouds.6 mph64%29.80 "HgN/A
12:50 PM63 °FScattered clouds.7 mph68%29.80 "HgN/A
11:50 AM63 °FPartly sunny.8 mph64%29.80 "HgN/A
10:50 AM61 °FPartly sunny.13 mph63%29.83 "HgN/A
9:55 AM59 °FPartly sunny.13 mph63%29.83 "HgN/A
8:50 AM59 °FScattered clouds.15 mph68%29.83 "HgN/A
7:50 AM55 °FPartly sunny.12 mph82%29.83 "HgN/A
6:50 AM54 °FScattered clouds.8 mph88%29.86 "HgN/A
5:50 AM50 °FPassing clouds.9 mph94%29.86 "HgN/A
Weather by CustomWeather, © 2016

See weather overviewHow to use our weather pages